Content
SEND FEEDBACK

Daily
Averages
Monthly
Summary
United States of America

GRAFTON, ILLINOIS


Home > North America > United States > Illinois
Elevation: 400 feet     Latitude: 38 58N     Longitude: 090 26W

WEATHER
 
SELECT A DAY
Number of Records: 170,536;   Date Range: 10/8/98 - 10/29/14
 
SHARE

PRINT THIS DATA

[ ← Previous Day ]
WEATHER ALMANAC - APRIL 30, 2013
[ Next Day → ]
[ °C ]   °F
Weather ElementAverageHighLow
Temperature72.1 °F84.9 °F (1:54 pm)55.9 °F (5:54 am)
Dewpoint56.9 °F60.1 °F (8:54 am)52 °F (4:54 pm)
Humidity62.6 %93 % (4:54 am)33 % (4:54 pm)
Barometer29.84 in29.92 in (10:54 pm)29.78 in (1:54 am)
Wind Speed10.9 mph21.9 mph (4:54 pm)
Wind Gust29.9 mph (4:54 pm)
Weather ElementAverage
Visibility9.6 mi
Wind DirectionSSE (149 °)

Weather ElementTotal
Precipitation---
Cooling Degree Days5.4 (Base 65)
Growing Degree Days20.4 (Base 50)
Averaged from 21 records on April 30, 2013
WEATHER CONDITIONS BREAKOUT
WIND DIRECTION BREAKOUT
WEATHER BY HOUR - APRIL 30, 2013
[ °C ]   °F
Local TimeTemperatureDewpointHumidityBarometerVisibilityWind DirectionWind SpeedGust SpeedPrecipitationEventsConditions
1:54 AM62.1 °F57.9 °F86 %29.78 in10.0 miSE (140°)6.9 mphClear
2:54 AM62.1 °F57.9 °F86 %29.79 in10.0 miESE (120°)5.8 mphClear
3:54 AM61.0 °F57.9 °F90 %29.80 in10.0 miEast (100°)4.6 mphClear
4:54 AM57.9 °F55.9 °F93 %29.81 in10.0 miENE (60°)4.6 mphClear
5:54 AM55.9 °F54.0 °F93 %29.82 in7.0 miEast (90°)5.8 mphClear
6:54 AM57.9 °F55.9 °F93 %29.84 in5.0 miEast (90°)6.9 mphClear
7:54 AM63.0 °F59.0 °F87 %29.86 in9.0 miEast (90°)4.6 mphClear
8:54 AM70.0 °F60.1 °F71 %29.86 in10.0 miSouth (180°)5.8 mphClear
9:54 AM75.0 °F60.1 °F60 %29.86 in10.0 miSSW (200°)11.5 mphClear
10:54 AM77.0 °F57.9 °F52 %29.86 in10.0 miSW (230°)6.9 mphClear
11:54 AM80.1 °F57.0 °F45 %29.86 in10.0 miSouth (190°)6.9 mphClear
12:54 PM82.9 °F57.0 °F41 %29.83 in10.0 miSouth (190°)8.1 mphClear
1:54 PM84.9 °F54.0 °F34 %29.82 in10.0 miSouth (180°)11.5 mph19.6 mphClear
3:54 PM84.9 °F54.0 °F34 %29.80 in10.0 miSouth (170°)15.0 mph23.0 mphClear
4:54 PM84.0 °F52.0 °F33 %29.81 in10.0 miSouth (170°)21.9 mph29.9 mphClear
5:54 PM82.0 °F57.9 °F44 %29.82 in10.0 miSSE (150°)18.4 mph26.5 mphClear
6:54 PM79.0 °F57.9 °F48 %29.83 in10.0 miSSE (150°)20.7 mph26.5 mphClear
7:54 PM77.0 °F57.0 °F50 %29.85 in10.0 miSSE (150°)19.6 mphClear
8:54 PM73.9 °F57.0 °F55 %29.88 in10.0 miSSE (160°)16.1 mphClear
9:54 PM72.0 °F57.0 °F59 %29.91 in10.0 miSSE (160°)13.8 mphClear
10:54 PM71.1 °F57.0 °F61 %29.92 in10.0 miSSE (160°)12.7 mphClear
Hourly data recorded from KSET, located miles away from Grafton, Illinois







STORIES FROM OUR PARTNERS